| time (UTC) | temp C | wind direction | speed KPH | gust KPH | rain 1hr cm | rain 24hr cm | rain mn cm | humidity % | barometer mb |
| 20260906212008 | 31 | 184 | 16.1 | 38.6 | 0.00 | 0.00 | 0.00 | 34 | 1012.7 |
| 20260906211512 | 31 | 87 | 17.7 | 37.0 | 0.00 | 0.00 | 0.00 | 34 | 1012.7 |
| 20260906211002 | 31 | 118 | 19.3 | 38.6 | 0.00 | 0.00 | 0.00 | 34 | 1012.9 |
| 20260906210503 | 32 | 121 | 20.9 | 38.6 | 0.00 | 0.00 | 0.00 | 32 | 1012.9 |
| 20260906210006 | 32 | 130 | 20.9 | 37.0 | 0.00 | 0.00 | 0.00 | 32 | 1013.0 |
| 20260906205505 | 32 | 164 | 19.3 | 40.2 | 0.00 | 0.00 | 0.00 | 32 | 1013.0 |
| 20260906205009 | 32 | 100 | 22.5 | 40.2 | 0.00 | 0.00 | 0.00 | 32 | 1013.0 |
| 20260906204510 | 32 | 138 | 25.7 | 38.6 | 0.00 | 0.00 | 0.00 | 31 | 1013.0 |
| 20260906204004 | 32 | 115 | 22.5 | 38.6 | 0.00 | 0.00 | 0.00 | 31 | 1013.0 |
| 20260906203503 | 32 | 143 | 24.1 | 41.8 | 0.00 | 0.00 | 0.00 | 30 | 1013.0 |
| 20260906203017 | 32 | 121 | 22.5 | 41.8 | 0.00 | 0.00 | 0.00 | 30 | 1012.9 |
| 20260906202508 | 33 | 81 | 19.3 | 43.5 | 0.00 | 0.00 | 0.00 | 30 | 1013.0 |
| 20260906202011 | 33 | 178 | 25.7 | 40.2 | 0.00 | 0.00 | 0.00 | 30 | 1012.9 |
| 20260906201516 | 32 | 130 | 19.3 | 35.4 | 0.00 | 0.00 | 0.00 | 30 | 1013.0 |
| 20260906201007 | 32 | 113 | 24.1 | 43.5 | 0.00 | 0.00 | 0.00 | 31 | 1012.8 |
| 20260906200508 | 32 | 120 | 25.7 | 43.5 | 0.00 | 0.00 | 0.00 | 31 | 1012.9 |
| 20260906200016 | 32 | 91 | 20.9 | 33.8 | 0.00 | 0.00 | 0.00 | 30 | 1012.9 |
| 20260906195503 | 33 | 126 | 19.3 | 29.0 | 0.00 | 0.00 | 0.00 | 30 | 1013.0 |
| 20260906195008 | 33 | 126 | 17.7 | 29.0 | 0.00 | 0.00 | 0.00 | 30 | 1013.0 |
| 20260906194508 | 32 | 138 | 20.9 | 27.4 | 0.00 | 0.00 | 0.00 | 31 | 1013.0 |
| 20260906194005 | 32 | 103 | 17.7 | 27.4 | 0.00 | 0.00 | 0.00 | 31 | 1013.1 |
| 20260906193504 | 32 | 119 | 12.9 | 24.1 | 0.00 | 0.00 | 0.00 | 31 | 1013.1 |
| 20260906193017 | 32 | 94 | 16.1 | 27.4 | 0.00 | 0.00 | 0.00 | 30 | 1013.1 |
| 20260906192505 | 33 | 154 | 16.1 | 27.4 | 0.00 | 0.00 | 0.00 | 30 | 1013.0 |
| 20260906192010 | 33 | 144 | 14.5 | 25.7 | 0.00 | 0.00 | 0.00 | 30 | 1013.0 |
| 20260906191519 | 33 | 151 | 14.5 | 27.4 | 0.00 | 0.00 | 0.00 | 29 | 1013.0 |
| 20260906191012 | 33 | 110 | 12.9 | 30.6 | 0.00 | 0.00 | 0.00 | 29 | 1013.1 |
| 20260906190509 | 33 | 101 | 16.1 | 30.6 | 0.00 | 0.00 | 0.00 | 29 | 1013.0 |
| 20260906190022 | 33 | 106 | 17.7 | 27.4 | 0.00 | 0.00 | 0.00 | 29 | 1013.1 |
| 20260906185507 | 33 | 76 | 12.9 | 22.5 | 0.00 | 0.00 | 0.00 | 29 | 1013.1 |
| 20260906185009 | 33 | 103 | 12.9 | 29.0 | 0.00 | 0.00 | 0.00 | 29 | 1013.1 |
| 20260906184523 | 33 | 111 | 16.1 | 29.0 | 0.00 | 0.00 | 0.00 | 29 | 1013.3 |
| 20260906184004 | 33 | 140 | 14.5 | 22.5 | 0.00 | 0.00 | 0.00 | 29 | 1013.3 |
| 20260906183504 | 33 | 163 | 9.7 | 17.7 | 0.00 | 0.00 | 0.00 | 28 | 1013.3 |
| 20260906183024 | 33 | 123 | 9.7 | 16.1 | 0.00 | 0.00 | 0.00 | 28 | 1013.4 |
| 20260906182504 | 33 | 108 | 8.0 | 16.1 | 0.00 | 0.00 | 0.00 | 29 | 1013.6 |
| 20260906182016 | 33 | 180 | 8.0 | 14.5 | 0.00 | 0.00 | 0.00 | 29 | 1013.7 |
| 20260906181519 | 33 | 217 | 4.8 | 16.1 | 0.00 | 0.00 | 0.00 | 30 | 1013.7 |
| 20260906181009 | 33 | 111 | 6.4 | 16.1 | 0.00 | 0.00 | 0.00 | 30 | 1013.7 |
| 20260906180510 | 32 | 19 | 9.7 | 16.1 | 0.00 | 0.00 | 0.00 | 31 | 1013.7 |
| 20260906180037 | 32 | 9 | 4.8 | 16.1 | 0.00 | 0.00 | 0.00 | 31 | 1013.9 |
| 20260906175511 | 32 | 24 | 6.4 | 14.5 | 0.00 | 0.00 | 0.00 | 33 | 1013.9 |
| 20260906175012 | 32 | 360 | 4.8 | 11.3 | 0.00 | 0.00 | 0.00 | 33 | 1014.0 |
| 20260906174524 | 32 | 57 | 3.2 | 11.3 | 0.00 | 0.00 | 0.00 | 33 | 1014.1 |
| 20260906174011 | 32 | 15 | 8.0 | 11.3 | 0.00 | 0.00 | 0.00 | 34 | 1014.1 |
| 20260906173509 | 31 | 351 | 3.2 | 9.7 | 0.00 | 0.00 | 0.00 | 34 | 1014.2 |
| 20260906173029 | 31 | 47 | 3.2 | 11.3 | 0.00 | 0.00 | 0.00 | 35 | 1014.3 |
| 20260906172504 | 31 | 54 | 8.0 | 11.3 | 0.00 | 0.00 | 0.00 | 34 | 1014.5 |
| 20260906172013 | 31 | 329 | 4.8 | 11.3 | 0.00 | 0.00 | 0.00 | 34 | 1014.6 |
| 20260906171514 | 31 | 36 | 6.4 | 11.3 | 0.00 | 0.00 | 0.00 | 35 | 1014.7 |
| 20260906171005 | 31 | 54 | 1.6 | 8.0 | 0.00 | 0.00 | 0.00 | 36 | 1014.7 |
| 20260906170505 | 31 | 74 | 4.8 | 11.3 | 0.00 | 0.00 | 0.00 | 36 | 1014.9 |
| 20260906170022 | 30 | 73 | 3.2 | 11.3 | 0.00 | 0.00 | 0.00 | 36 | 1015.0 |
| 20260906165515 | 30 | 70 | 3.2 | 11.3 | 0.00 | 0.00 | 0.00 | 36 | 1015.0 |
| 20260906165014 | 30 | 348 | 4.8 | 12.9 | 0.00 | 0.00 | 0.00 | 36 | 1015.1 |
| 20260906164529 | 30 | 9 | 3.2 | 12.9 | 0.00 | 0.00 | 0.00 | 36 | 1015.1 |
| 20260906164010 | 30 | 31 | 6.4 | 12.9 | 0.00 | 0.00 | 0.00 | 36 | 1015.1 |
| 20260906163510 | 30 | 69 | 4.8 | 14.5 | 0.00 | 0.00 | 0.00 | 37 | 1015.2 |
| 20260906163026 | 30 | 313 | 4.8 | 14.5 | 0.00 | 0.00 | 0.00 | 36 | 1015.2 |
| 20260906162513 | 30 | 22 | 6.4 | 12.9 | 0.00 | 0.00 | 0.00 | 37 | 1015.2 |
| 20260906162015 | 30 | 319 | 3.2 | 9.7 | 0.00 | 0.00 | 0.00 | 37 | 1015.2 |
| 20260906161528 | 30 | 22 | 6.4 | 9.7 | 0.00 | 0.00 | 0.00 | 38 | 1015.2 |
| 20260906161004 | 30 | 314 | 1.6 | 8.0 | 0.00 | 0.00 | 0.00 | 38 | 1015.2 |
| 20260906160508 | 30 | 69 | 3.2 | 12.9 | 0.00 | 0.00 | 0.00 | 38 | 1015.3 |
| 20260906160027 | 30 | 336 | 4.8 | 12.9 | 0.00 | 0.00 | 0.00 | 38 | 1015.2 |
| 20260906155510 | 29 | 18 | 3.2 | 11.3 | 0.00 | 0.00 | 0.00 | 39 | 1015.2 |
| 20260906155015 | 29 | 32 | 1.6 | 11.3 | 0.00 | 0.00 | 0.00 | 39 | 1015.2 |
| 20260906154524 | 29 | 350 | 4.8 | 8.0 | 0.00 | 0.00 | 0.00 | 39 | 1015.2 |
| 20260906154012 | 28 | 346 | 6.4 | 8.0 | 0.00 | 0.00 | 0.00 | 39 | 1015.2 |
| 20260906153515 | 28 | 16 | 4.8 | 8.0 | 0.00 | 0.00 | 0.00 | 40 | 1015.2 |
| 20260906153031 | 28 | 352 | 3.2 | 6.4 | 0.00 | 0.00 | 0.00 | 40 | 1015.2 |
| 20260906152511 | 28 | 65 | 3.2 | 4.8 | 0.00 | 0.00 | 0.00 | 41 | 1015.2 |
| 20260906152015 | 28 | 88 | 3.2 | 4.8 | 0.00 | 0.00 | 0.00 | 41 | 1015.1 |
| 20260906151530 | 28 | 65 | 0.0 | 3.2 | 0.00 | 0.00 | 0.00 | 41 | 1015.0 |
| 20260906151015 | 28 | 49 | 1.6 | 3.2 | 0.00 | 0.00 | 0.00 | 42 | 1015.0 |
| 20260906150515 | 27 | 66 | 1.6 | 3.2 | 0.00 | 0.00 | 0.00 | 43 | 1015.1 |
| 20260906150015 | 27 | 37 | 1.6 | 3.2 | 0.00 | 0.00 | 0.00 | 44 | 1015.2 |
| 20260906145507 | 27 | 31 | 0.0 | 3.2 | 0.00 | 0.00 | 0.00 | 45 | 1015.3 |
| 20260906145014 | 26 | 31 | 0.0 | 3.2 | 0.00 | 0.00 | 0.00 | 46 | 1015.3 |
| 20260906144522 | 26 | 31 | 0.0 | 3.2 | 0.00 | 0.00 | 0.00 | 47 | 1015.5 |
| 20260906144012 | 26 | 31 | 0.0 | 3.2 | 0.00 | 0.00 | 0.00 | 48 | 1015.5 |
| 20260906143513 | 25 | 31 | 0.0 | 3.2 | 0.00 | 0.00 | 0.00 | 49 | 1015.5 |
| 20260906143024 | 25 | 31 | 0.0 | 3.2 | 0.00 | 0.00 | 0.00 | 49 | 1015.6 |
| 20260906142514 | 25 | 31 | 1.6 | 3.2 | 0.00 | 0.00 | 0.00 | 50 | 1015.6 |
| 20260906142018 | 25 | 31 | 1.6 | 3.2 | 0.00 | 0.00 | 0.00 | 50 | 1015.6 |
| 20260906141530 | 24 | 31 | 1.6 | 3.2 | 0.00 | 0.00 | 0.00 | 52 | 1015.6 |
| 20260906141015 | 24 | 138 | 1.6 | 3.2 | 0.00 | 0.00 | 0.00 | 53 | 1015.6 |
| 20260906140517 | 23 | 138 | 0.0 | 3.2 | 0.00 | 0.00 | 0.00 | 55 | 1015.7 |
| 20260906140030 | 23 | 138 | 0.0 | 3.2 | 0.00 | 0.00 | 0.00 | 56 | 1015.6 |
| 20260906135513 | 22 | 138 | 1.6 | 3.2 | 0.00 | 0.00 | 0.00 | 58 | 1015.6 |
| 20260906135016 | 22 | 138 | 0.0 | 3.2 | 0.00 | 0.00 | 0.00 | 58 | 1015.6 |
| 20260906134518 | 21 | 138 | 0.0 | 3.2 | 0.00 | 0.00 | 0.00 | 60 | 1015.6 |
| 20260906134011 | 21 | 138 | 0.0 | 3.2 | 0.00 | 0.00 | 0.00 | 61 | 1015.6 |
| 20260906133514 | 21 | 138 | 0.0 | 0.0 | 0.00 | 0.00 | 0.00 | 63 | 1015.6 |
| 20260906133038 | -17 | 0.0 | 0.0 | 0.00 | 0.00 | 0.00 | 1015.6 | ||
| 20260906132514 | -17 | 0.0 | 0.0 | 0.00 | 0.00 | 0.00 | 1015.6 | ||
| 20260906132015 | -17 | 0.0 | 0.0 | 0.00 | 0.00 | 0.00 | 1015.6 | ||
| 20260906131531 | -17 | 0.0 | 0.0 | 0.00 | 0.00 | 0.00 | 1015.6 | ||
| 20260906131016 | -17 | 0.0 | 0.0 | 0.00 | 0.00 | 0.00 | 1015.5 | ||
| 20260906130513 | -17 | 0.0 | 0.0 | 0.00 | 0.00 | 0.00 | 1015.5 | ||
| 20260906130030 | -17 | 0.0 | 0.0 | 0.00 | 0.00 | 0.00 | 1015.4 | ||
| 20260906125515 | -17 | 0.0 | 0.0 | 0.00 | 0.00 | 0.00 | 1015.3 | ||
| 20260906125018 | -17 | 0.0 | 0.0 | 0.00 | 0.00 | 0.00 | 1015.3 | ||
| 20260906124535 | -17 | 0.0 | 0.0 | 0.00 | 0.00 | 0.00 | 1015.2 | ||
| 20260906124021 | -17 | 0.0 | 0.0 | 0.00 | 0.00 | 0.00 | 1015.1 | ||
| 20260906123521 | -17 | 0.0 | 0.0 | 0.00 | 0.00 | 0.00 | 1015.2 | ||
| 20260906123036 | -17 | 0.0 | 0.0 | 0.00 | 0.00 | 0.00 | 1015.2 | ||
| 20260906122514 | -17 | 0.0 | 0.0 | 0.00 | 0.00 | 0.00 | 1015.2 | ||
| 20260906122018 | -17 | 0.0 | 0.0 | 0.00 | 0.00 | 0.00 | 1015.2 | ||
| 20260906121536 | -17 | 0.0 | 0.0 | 0.00 | 0.00 | 0.00 | 1015.2 | ||
| 20260906121016 | -17 | 0.0 | 0.0 | 0.00 | 0.00 | 0.00 | 1015.1 | ||
| 20260906120517 | -17 | 0.0 | 0.0 | 0.00 | 0.00 | 0.00 | 1015.1 | ||
| 20260906120034 | -17 | 0.0 | 0.0 | 0.00 | 0.00 | 0.00 | 1015.0 | ||
| 20260906115516 | -17 | 0.0 | 0.0 | 0.00 | 0.00 | 0.00 | 1015.0 | ||
| 20260906115013 | -17 | 1.6 | 3.2 | 0.00 | 0.00 | 0.00 | 1015.0 | ||
| 20260906114542 | 19 | 242 | 1.6 | 6.4 | 0.00 | 0.00 | 0.00 | 66 | 1015.0 |
| 20260906114015 | 19 | 258 | 3.2 | 6.4 | 0.00 | 0.00 | 0.00 | 66 | 1014.9 |
| 20260906113513 | 19 | 134 | 0.0 | 6.4 | 0.00 | 0.00 | 0.00 | 65 | 1015.0 |
| 20260906113029 | 19 | 236 | 1.6 | 4.8 | 0.00 | 0.00 | 0.00 | 65 | 1015.0 |
| 20260906112515 | 18 | 274 | 4.8 | 4.8 | 0.00 | 0.00 | 0.00 | 66 | 1014.9 |
| 20260906112013 | 18 | 350 | 1.6 | 4.8 | 0.00 | 0.00 | 0.00 | 67 | 1015.0 |
| 20260906111516 | 18 | 81 | 3.2 | 4.8 | 0.00 | 0.00 | 0.00 | 69 | 1015.1 |
| 20260906111009 | 18 | 341 | 0.0 | 4.8 | 0.00 | 0.00 | 0.00 | 71 | 1014.8 |
| 20260906110511 | 17 | 261 | 1.6 | 6.4 | 0.00 | 0.00 | 0.00 | 72 | 1014.8 |
| 20260906110020 | 17 | 256 | 1.6 | 6.4 | 0.00 | 0.00 | 0.00 | 71 | 1014.8 |
| 20260906105516 | 17 | 244 | 1.6 | 6.4 | 0.00 | 0.00 | 0.00 | 70 | 1014.9 |
| 20260906105012 | 17 | 298 | 3.2 | 6.4 | 0.00 | 0.00 | 0.00 | 69 | 1014.9 |
| 20260906104526 | 17 | 319 | 1.6 | 3.2 | 0.00 | 0.00 | 0.00 | 70 | 1015.1 |
| 20260906104014 | 18 | 321 | 0.0 | 4.8 | 0.00 | 0.00 | 0.00 | 68 | 1015.1 |
| 20260906103515 | 18 | 321 | 1.6 | 4.8 | 0.00 | 0.00 | 0.00 | 67 | 1015.1 |
| 20260906103034 | 18 | 161 | 0.0 | 3.2 | 0.00 | 0.00 | 0.00 | 67 | 1015.0 |
| 20260906102521 | 18 | 161 | 0.0 | 3.2 | 0.00 | 0.00 | 0.00 | 67 | 1015.1 |
| 20260906102017 | 18 | 161 | 1.6 | 3.2 | 0.00 | 0.00 | 0.00 | 66 | 1015.1 |
| 20260906101531 | 19 | 171 | 0.0 | 3.2 | 0.00 | 0.00 | 0.00 | 66 | 1015.1 |
| 20260906101007 | 19 | 170 | 0.0 | 3.2 | 0.00 | 0.00 | 0.00 | 65 | 1015.1 |
| 20260906100509 | 19 | 173 | 0.0 | 4.8 | 0.00 | 0.00 | 0.00 | 65 | 1015.0 |
| 20260906100023 | 20 | 166 | 1.6 | 4.8 | 0.00 | 0.00 | 0.00 | 64 | 1014.9 |
| 20260906095511 | 20 | 258 | 1.6 | 4.8 | 0.00 | 0.00 | 0.00 | 64 | 1014.8 |
| 20260906095003 | 20 | 283 | 1.6 | 8.0 | 0.00 | 0.00 | 0.00 | 63 | 1014.8 |
| 20260906094504 | 20 | 17 | 4.8 | 8.0 | 0.00 | 0.00 | 0.00 | 61 | 1014.8 |
| 20260906094002 | 21 | 191 | 3.2 | 4.8 | 0.00 | 0.00 | 0.00 | 60 | 1014.8 |
| 20260906093504 | 21 | 191 | 3.2 | 9.7 | 0.00 | 0.00 | 0.00 | 60 | 1014.8 |
| 20260906093006 | 21 | 275 | 3.2 | 9.7 | 0.00 | 0.00 | 0.00 | 60 | 1014.7 |
| 20260906092503 | 21 | 344 | 4.8 | 9.7 | 0.00 | 0.00 | 0.00 | 60 | 1014.7 |
| 20260906092004 | 21 | 58 | 3.2 | 8.0 | 0.00 | 0.00 | 0.00 | 60 | 1014.7 |
| 20260906091519 | 21 | 315 | 3.2 | 14.5 | 0.00 | 0.00 | 0.00 | 60 | 1014.5 |
| 20260906091006 | 21 | 298 | 6.4 | 14.5 | 0.00 | 0.00 | 0.00 | 62 | 1014.3 |
| 20260906090508 | 20 | 291 | 8.0 | 14.5 | 0.00 | 0.00 | 0.00 | 64 | 1014.4 |
| 20260906090019 | 20 | 268 | 4.8 | 9.7 | 0.00 | 0.00 | 0.00 | 66 | 1014.3 |
| 20260906085510 | 19 | 275 | 4.8 | 6.4 | 0.00 | 0.00 | 0.00 | 67 | 1014.2 |
| 20260906085017 | 19 | 277 | 1.6 | 4.8 | 0.00 | 0.00 | 0.00 | 66 | 1014.2 |
| 20260906084525 | 19 | 148 | 0.0 | 3.2 | 0.00 | 0.00 | 0.00 | 65 | 1014.3 |
| 20260906084013 | 19 | 148 | 0.0 | 3.2 | 0.00 | 0.00 | 0.00 | 64 | 1014.3 |
| 20260906083505 | 19 | 146 | 1.6 | 3.2 | 0.00 | 0.00 | 0.00 | 62 | 1014.5 |
| 20260906083003 | 20 | 153 | 1.6 | 3.2 | 0.00 | 0.00 | 0.00 | 61 | 1014.6 |
| 20260906082503 | 20 | 155 | 1.6 | 3.2 | 0.00 | 0.00 | 0.00 | 60 | 1014.6 |
| 20260906082003 | 20 | 156 | 1.6 | 3.2 | 0.00 | 0.00 | 0.00 | 60 | 1014.7 |
| 20260906081530 | 21 | 159 | 0.0 | 3.2 | 0.00 | 0.00 | 0.00 | 59 | 1014.8 |
| 20260906081006 | 21 | 153 | 1.6 | 3.2 | 0.00 | 0.00 | 0.00 | 59 | 1014.8 |
| 20260906080505 | 21 | 154 | 0.0 | 3.2 | 0.00 | 0.00 | 0.00 | 60 | 1014.8 |
| 20260906080014 | 21 | 152 | 1.6 | 6.4 | 0.00 | 0.00 | 0.00 | 62 | 1014.8 |
| 20260906075507 | 20 | 155 | 3.2 | 17.7 | 0.00 | 0.00 | 0.00 | 62 | 1014.8 |
| 20260906075015 | 20 | 129 | 8.0 | 17.7 | 0.00 | 0.00 | 0.00 | 63 | 1014.9 |
| 20260906074523 | 19 | 120 | 6.4 | 17.7 | 0.00 | 0.00 | 0.00 | 62 | 1014.9 |
| 20260906074011 | 19 | 257 | 0.0 | 4.8 | 0.00 | 0.00 | 0.00 | 62 | 1014.6 |
| 20260906073511 | 19 | 257 | 1.6 | 6.4 | 0.00 | 0.00 | 0.00 | 61 | 1014.6 |
| 20260906073031 | 20 | 283 | 3.2 | 6.4 | 0.00 | 0.00 | 0.00 | 59 | 1014.6 |
| 20260906072514 | 20 | 157 | 1.6 | 3.2 | 0.00 | 0.00 | 0.00 | 59 | 1014.8 |
| 20260906072004 | 20 | 157 | 1.6 | 3.2 | 0.00 | 0.00 | 0.00 | 57 | 1014.9 |
| 20260906071529 | 20 | 155 | 0.0 | 4.8 | 0.00 | 0.00 | 0.00 | 58 | 1015.0 |
| 20260906071017 | 20 | 155 | 0.0 | 4.8 | 0.00 | 0.00 | 0.00 | 58 | 1014.9 |
| 20260906070515 | 20 | 155 | 1.6 | 4.8 | 0.00 | 0.00 | 0.00 | 58 | 1014.8 |
| 20260906070033 | 20 | 84 | 0.0 | 3.2 | 0.00 | 0.00 | 0.00 | 57 | 1014.7 |
| 20260906065505 | 21 | 352 | 0.0 | 3.2 | 0.00 | 0.00 | 0.00 | 56 | 1014.6 |
| 20260906065008 | 21 | 352 | 0.0 | 3.2 | 0.00 | 0.00 | 0.00 | 55 | 1014.5 |
| 20260906064518 | 21 | 352 | 0.0 | 3.2 | 0.00 | 0.00 | 0.00 | 55 | 1014.5 |
| 20260906064014 | 21 | 352 | 1.6 | 4.8 | 0.00 | 0.00 | 0.00 | 54 | 1014.6 |
| 20260906063520 | 21 | 360 | 1.6 | 4.8 | 0.00 | 0.00 | 0.00 | 53 | 1014.8 |
| 20260906063027 | 22 | 162 | 0.0 | 3.2 | 0.00 | 0.00 | 0.00 | 52 | 1014.9 |
| 20260906062512 | 22 | 360 | 0.0 | 3.2 | 0.00 | 0.00 | 0.00 | 51 | 1014.9 |
| 20260906062016 | 22 | 360 | 0.0 | 3.2 | 0.00 | 0.00 | 0.00 | 50 | 1014.9 |
| 20260906061527 | 23 | 166 | 1.6 | 3.2 | 0.00 | 0.00 | 0.00 | 50 | 1014.8 |
| 20260906061013 | 23 | 169 | 1.6 | 3.2 | 0.00 | 0.00 | 0.00 | 49 | 1014.7 |
| 20260906060517 | 23 | 159 | 0.0 | 3.2 | 0.00 | 0.00 | 0.00 | 48 | 1014.7 |
| 20260906060033 | 23 | 250 | 0.0 | 1.6 | 0.00 | 0.00 | 0.00 | 47 | 1014.7 |
| 20260906055520 | 24 | 248 | 0.0 | 3.2 | 0.00 | 0.00 | 0.00 | 47 | 1014.7 |
| 20260906055018 | 24 | 248 | 1.6 | 3.2 | 0.00 | 0.00 | 0.00 | 47 | 1014.9 |
| 20260906054552 | 24 | 248 | 1.6 | 3.2 | 0.00 | 0.00 | 0.00 | 46 | 1015.0 |
| 20260906054009 | 24 | 156 | 3.2 | 4.8 | 0.00 | 0.00 | 0.00 | 46 | 1015.2 |
| 20260906053510 | 24 | 157 | 3.2 | 9.7 | 0.00 | 0.00 | 0.00 | 46 | 1015.3 |
| 20260906053023 | 24 | 142 | 3.2 | 9.7 | 0.00 | 0.00 | 0.00 | 46 | 1015.4 |
| 20260906052510 | 24 | 155 | 3.2 | 6.4 | 0.00 | 0.00 | 0.00 | 46 | 1015.5 |
| 20260906052018 | 24 | 153 | 3.2 | 6.4 | 0.00 | 0.00 | 0.00 | 46 | 1015.5 |
| 20260906051527 | 24 | 132 | 0.0 | 6.4 | 0.00 | 0.00 | 0.00 | 46 | 1015.5 |
| 20260906051013 | 24 | 130 | 3.2 | 6.4 | 0.00 | 0.00 | 0.00 | 47 | 1015.5 |
| 20260906050513 | 24 | 199 | 1.6 | 8.0 | 0.00 | 0.00 | 0.00 | 47 | 1015.2 |
| 20260906050036 | 24 | 198 | 4.8 | 8.0 | 0.00 | 0.00 | 0.00 | 47 | 1015.2 |
| 20260906045515 | 24 | 155 | 3.2 | 8.0 | 0.00 | 0.00 | 0.00 | 47 | 1015.1 |
| 20260906045017 | 24 | 132 | 1.6 | 8.0 | 0.00 | 0.00 | 0.00 | 47 | 1015.1 |
| 20260906044532 | 24 | 167 | 4.8 | 8.0 | 0.00 | 0.00 | 0.00 | 47 | 1015.2 |
| 20260906044021 | 24 | 191 | 3.2 | 8.0 | 0.00 | 0.00 | 0.00 | 46 | 1015.2 |
| 20260906043519 | 25 | 192 | 1.6 | 8.0 | 0.00 | 0.00 | 0.00 | 46 | 1015.3 |
| 20260906043033 | 25 | 168 | 1.6 | 11.3 | 0.00 | 0.00 | 0.00 | 45 | 1015.4 |
| 20260906042511 | 25 | 168 | 0.0 | 11.3 | 0.00 | 0.00 | 0.00 | 45 | 1015.4 |
| 20260906042017 | 25 | 141 | 6.4 | 11.3 | 0.00 | 0.00 | 0.00 | 44 | 1015.4 |
| 20260906041528 | 25 | 104 | 3.2 | 4.8 | 0.00 | 0.00 | 0.00 | 43 | 1015.2 |
| 20260906041015 | 26 | 132 | 0.0 | 3.2 | 0.00 | 0.00 | 0.00 | 41 | 1015.1 |
| 20260906040503 | 26 | 136 | 0.0 | 3.2 | 0.00 | 0.00 | 0.00 | 41 | 1015.2 |
| 20260906040006 | 26 | 142 | 0.0 | 3.2 | 0.00 | 0.00 | 0.00 | 40 | 1015.2 |
| 20260906035504 | 27 | 134 | 0.0 | 3.2 | 0.00 | 0.00 | 0.00 | 40 | 1015.2 |
| 20260906035004 | 27 | 133 | 0.0 | 4.8 | 0.00 | 0.00 | 0.00 | 40 | 1015.2 |
| 20260906034513 | 27 | 99 | 3.2 | 6.4 | 0.00 | 0.00 | 0.00 | 40 | 1015.2 |
| 20260906034018 | 27 | 99 | 3.2 | 9.7 | 0.00 | 0.00 | 0.00 | 39 | 1015.3 |
| 20260906033517 | 27 | 78 | 4.8 | 9.7 | 0.00 | 0.00 | 0.00 | 38 | 1015.3 |
| 20260906033035 | 28 | 71 | 4.8 | 9.7 | 0.00 | 0.00 | 0.00 | 38 | 1015.3 |
| 20260906032507 | 28 | 128 | 3.2 | 9.7 | 0.00 | 0.00 | 0.00 | 40 | 1015.2 |
| 20260906032009 | 27 | 161 | 1.6 | 17.7 | 0.00 | 0.00 | 0.00 | 40 | 1015.2 |
| 20260906031525 | 27 | 193 | 4.8 | 17.7 | 0.00 | 0.00 | 0.00 | 41 | 1015.1 |
| 20260906031010 | 26 | 179 | 6.4 | 11.3 | 0.00 | 0.00 | 0.00 | 42 | 1015.0 |
| 20260906030512 | 26 | 198 | 4.8 | 11.3 | 0.00 | 0.00 | 0.00 | 42 | 1014.9 |
| 20260906030027 | 25 | 173 | 1.6 | 4.8 | 0.00 | 0.00 | 0.00 | 41 | 1014.9 |
| 20260906025504 | 25 | 267 | 1.6 | 4.8 | 0.00 | 0.00 | 0.00 | 41 | 1014.9 |
| 20260906025004 | 26 | 266 | 1.6 | 3.2 | 0.00 | 0.00 | 0.00 | 39 | 1014.9 |
| 20260906024510 | 26 | 274 | 1.6 | 3.2 | 0.00 | 0.00 | 0.00 | 38 | 1014.8 |
| 20260906024006 | 26 | 360 | 1.6 | 3.2 | 0.00 | 0.00 | 0.00 | 36 | 1014.7 |
| 20260906023505 | 27 | 294 | 1.6 | 3.2 | 0.00 | 0.00 | 0.00 | 36 | 1014.6 |
| 20260906023013 | 28 | 17 | 0.0 | 3.2 | 0.00 | 0.00 | 0.00 | 34 | 1014.4 |
| 20260906022507 | 28 | 68 | 0.0 | 3.2 | 0.00 | 0.00 | 0.00 | 33 | 1014.3 |
| 20260906022009 | 28 | 69 | 1.6 | 6.4 | 0.00 | 0.00 | 0.00 | 33 | 1014.2 |
| 20260906021522 | 29 | 61 | 1.6 | 11.3 | 0.00 | 0.00 | 0.00 | 34 | 1014.2 |
| 20260906021011 | 29 | 158 | 3.2 | 11.3 | 0.00 | 0.00 | 0.00 | 35 | 1014.2 |
| 20260906020512 | 29 | 144 | 3.2 | 14.5 | 0.00 | 0.00 | 0.00 | 32 | 1014.1 |
| 20260906020025 | 29 | 171 | 6.4 | 14.5 | 0.00 | 0.00 | 0.00 | 32 | 1014.0 |
| 20260906015519 | 29 | 138 | 6.4 | 9.7 | 0.00 | 0.00 | 0.00 | 30 | 1014.1 |
| 20260906015018 | 30 | 121 | 4.8 | 6.4 | 0.00 | 0.00 | 0.00 | 29 | 1014.1 |
| 20260906014531 | 30 | 139 | 1.6 | 11.3 | 0.00 | 0.00 | 0.00 | 29 | 1014.1 |
| 20260906014003 | 30 | 130 | 6.4 | 11.3 | 0.00 | 0.00 | 0.00 | 28 | 1014.1 |
| 20260906013506 | 30 | 134 | 4.8 | 11.3 | 0.00 | 0.00 | 0.00 | 28 | 1014.1 |
| 20260906013009 | 30 | 169 | 4.8 | 11.3 | 0.00 | 0.00 | 0.00 | 28 | 1014.2 |
| 20260906012508 | 30 | 190 | 4.8 | 12.9 | 0.00 | 0.00 | 0.00 | 28 | 1014.3 |
| 20260906012006 | 30 | 165 | 6.4 | 19.3 | 0.00 | 0.00 | 0.00 | 28 | 1014.2 |
| 20260906011518 | 30 | 167 | 6.4 | 19.3 | 0.00 | 0.00 | 0.00 | 28 | 1014.2 |
| 20260906011007 | 30 | 163 | 4.8 | 16.1 | 0.00 | 0.00 | 0.00 | 29 | 1014.3 |
| 20260906010512 | 30 | 186 | 8.0 | 20.9 | 0.00 | 0.00 | 0.00 | 28 | 1014.3 |
| 20260906010027 | 30 | 153 | 8.0 | 20.9 | 0.00 | 0.00 | 0.00 | 28 | 1014.3 |
| 20260906005518 | 30 | 186 | 11.3 | 20.9 | 0.00 | 0.00 | 0.00 | 28 | 1014.4 |
| 20260906005017 | 30 | 194 | 8.0 | 17.7 | 0.00 | 0.00 | 0.00 | 28 | 1014.4 |
| 20260906004531 | 31 | 186 | 9.7 | 22.5 | 0.00 | 0.00 | 0.00 | 28 | 1014.4 |
| 20260906004016 | 31 | 188 | 9.7 | 22.5 | 0.00 | 0.00 | 0.00 | 28 | 1014.3 |
| 20260906003514 | 31 | 182 | 8.0 | 19.3 | 0.00 | 0.00 | 0.00 | 27 | 1014.2 |
| 20260906003032 | 31 | 161 | 6.4 | 22.5 | 0.00 | 0.00 | 0.00 | 27 | 1014.2 |
| 20260906002519 | 31 | 223 | 11.3 | 22.5 | 0.00 | 0.00 | 0.00 | 26 | 1014.2 |
| 20260906002019 | 31 | 192 | 9.7 | 22.5 | 0.00 | 0.00 | 0.00 | 26 | 1014.1 |
| 20260906001537 | 31 | 148 | 11.3 | 27.4 | 0.00 | 0.00 | 0.00 | 26 | 1014.1 |
| 20260906001018 | 31 | 199 | 12.9 | 27.4 | 0.00 | 0.00 | 0.00 | 26 | 1014.1 |
| 20260906000518 | 31 | 167 | 9.7 | 19.3 | 0.00 | 0.00 | 0.00 | 26 | 1014.0 |
| 20260906000036 | 32 | 166 | 11.3 | 19.3 | 0.00 | 0.00 | 0.00 | 26 | 1013.9 |
| 20260905235512 | 32 | 136 | 9.7 | 19.3 | 0.00 | 0.00 | 0.00 | 26 | 1013.8 |
| 20260905235011 | 32 | 140 | 9.7 | 17.7 | 0.00 | 0.00 | 0.00 | 27 | 1013.8 |
| 20260905234528 | 32 | 139 | 6.4 | 17.7 | 0.00 | 0.00 | 0.00 | 26 | 1013.8 |
| 20260905234015 | 32 | 212 | 9.7 | 25.7 | 0.00 | 0.00 | 0.00 | 26 | 1013.8 |
| 20260905233514 | 32 | 134 | 9.7 | 25.7 | 0.00 | 0.00 | 0.00 | 26 | 1013.8 |
| 20260905233029 | 32 | 135 | 8.0 | 24.1 | 0.00 | 0.00 | 0.00 | 26 | 1013.8 |
| 20260905232516 | 32 | 153 | 11.3 | 22.5 | 0.00 | 0.00 | 0.00 | 26 | 1013.9 |
| 20260905232016 | 32 | 117 | 6.4 | 17.7 | 0.00 | 0.00 | 0.00 | 26 | 1013.9 |
| 20260905231531 | 32 | 119 | 11.3 | 19.3 | 0.00 | 0.00 | 0.00 | 26 | 1013.8 |
| 20260905231018 | 32 | 121 | 12.9 | 19.3 | 0.00 | 0.00 | 0.00 | 25 | 1013.7 |
| 20260905230517 | 32 | 107 | 8.0 | 24.1 | 0.00 | 0.00 | 0.00 | 24 | 1013.7 |
| 20260905230034 | 32 | 95 | 8.0 | 24.1 | 0.00 | 0.00 | 0.00 | 24 | 1013.7 |
| 20260905225519 | 33 | 105 | 9.7 | 30.6 | 0.00 | 0.00 | 0.00 | 24 | 1013.7 |
| 20260905225021 | 33 | 162 | 11.3 | 30.6 | 0.00 | 0.00 | 0.00 | 24 | 1013.6 |
| 20260905224600 | 33 | 93 | 12.9 | 19.3 | 0.00 | 0.00 | 0.00 | 25 | 1013.7 |
| 20260905224013 | 33 | 90 | 12.9 | 19.3 | 0.00 | 0.00 | 0.00 | 24 | 1013.6 |
| 20260905223513 | 33 | 101 | 8.0 | 17.7 | 0.00 | 0.00 | 0.00 | 23 | 1013.5 |
| 20260905223031 | 33 | 110 | 11.3 | 19.3 | 0.00 | 0.00 | 0.00 | 23 | 1013.6 |
| 20260905222517 | 32 | 134 | 6.4 | 19.3 | 0.00 | 0.00 | 0.00 | 24 | 1013.5 |
| 20260905222019 | 32 | 74 | 8.0 | 14.5 | 0.00 | 0.00 | 0.00 | 24 | 1013.5 |
| 20260905221530 | 32 | 119 | 9.7 | 16.1 | 0.00 | 0.00 | 0.00 | 24 | 1013.6 |
| 20260905221019 | 33 | 123 | 8.0 | 19.3 | 0.00 | 0.00 | 0.00 | 24 | 1013.7 |
| 20260905220505 | 33 | 105 | 11.3 | 19.3 | 0.00 | 0.00 | 0.00 | 24 | 1013.6 |
| 20260905220018 | 33 | 92 | 14.5 | 19.3 | 0.00 | 0.00 | 0.00 | 23 | 1013.6 |
| 20260905215509 | 33 | 93 | 12.9 | 22.5 | 0.00 | 0.00 | 0.00 | 22 | 1013.5 |
| 20260905215011 | 34 | 96 | 14.5 | 25.7 | 0.00 | 0.00 | 0.00 | 21 | 1013.5 |
| 20260905214523 | 35 | 76 | 9.7 | 25.7 | 0.00 | 0.00 | 0.00 | 21 | 1013.6 |
| 20260905214010 | 35 | 140 | 9.7 | 14.5 | 0.00 | 0.00 | 0.00 | 20 | 1013.6 |
| 20260905213514 | 35 | 62 | 6.4 | 14.5 | 0.00 | 0.00 | 0.00 | 21 | 1013.7 |
| 20260905213032 | 34 | 47 | 6.4 | 17.7 | 0.00 | 0.00 | 0.00 | 22 | 1013.7 |
| 20260905212517 | 34 | 88 | 8.0 | 17.7 | 0.00 | 0.00 | 0.00 | 22 | 1013.8 |